Location: Bethany Fellowship Church
(32.6216°N, 97.3708°W)
Time: 20:45:36
(UTC+00:00)

Daily predictions for brighter satellites

Satellite Brightness Start Highest point End
(mag) Time Altitude Azimuth Time Altitude Azimuth Time Altitude Azimuth
OAO 2 Rocket 3.3 12:05:30 22° W 12:08:55 81° NNW 12:14:03 10° ENE
Cosmos 1758 Rocket 3.9 12:07:23 10° S 12:11:47 70° E 12:16:10 10° NNE
NOSS 3-1 (C) 4.3 12:04:55 13° NW 12:12:09 70° WSW 12:21:30 10° SSE
Meteor 2-20 Rocket 4.3 12:08:56 10° N 12:14:40 87° E 12:20:23 10° S
BREEZE-M DEB (TANK) 4.0 12:11:19 10° SW 12:15:12 71° SE 12:29:34 10° NE
Cosmos 1484 Rocket 2.3 12:12:34 10° N 12:15:57 87° WNW 12:19:16 10° SSW
Cosmos 1898 Rocket 4.5 12:14:11 20° WNW 12:16:17 26° W 12:20:35 10° SSW
BREEZE-M DEB (TANK) 3.7 12:14:13 10° SW 12:20:45 71° SE 12:23:30 10° NE
Helios 1A Rocket 2.3 12:19:16 10° S 12:22:34 71° WSW 12:25:55 10° NNW
ISS -1.5 12:19:58 10° SSW 12:22:55 29° SE 12:25:53 10° ENE
IRS-1D 4.4 12:20:14 10° NNW 12:24:22 26° WNW 12:28:32 10° SW
[s.n.66875] 1.7 12:23:41 10° SW 12:26:10 61° SSE 12:28:41 10° ENE
[s.n.66873] 1.7 12:24:22 10° SW 12:26:53 62° SE 12:29:23 10° ENE
[s.n.66876] 1.7 12:24:50 10° SW 12:27:20 63° SSE 12:29:52 10° ENE
[s.n.66874] 1.6 12:25:38 10° SW 12:28:08 65° SSE 12:30:40 10° ENE
OAO 3 Copernicus 4.4 12:24:50 16° W 12:28:50 66° N 12:33:48 10° E
[s.n.66872] 1.6 12:26:26 10° SW 12:28:56 67° SSE 12:31:28 10° ENE
[s.n.66871] 1.6 12:26:58 10° SW 12:29:29 68° SSE 12:32:01 10° ENE
[s.n.66870] 1.5 12:27:47 10° SW 12:30:19 70° SSE 12:32:51 10° ENE
Cosmos 1833 4.3 12:25:33 10° SW 12:31:00 51° WNW 12:36:31 10° N
[s.n.66869] 1.5 12:28:35 10° SW 12:31:06 71° SSE 12:33:39 10° ENE
Cosmos 2360 Rocket 2.5 12:25:29 10° NNW 12:31:06 68° ENE 12:36:39 10° SSE
Tiangong -0.8 12:29:06 16° W 12:31:06 29° SW 12:33:56 10° SSE
[s.n.66868] 1.5 12:29:12 10° SW 12:31:43 73° SSE 12:34:15 10° ENE
[s.n.66867] 1.4 12:30:00 10° SW 12:32:31 74° SSE 12:35:04 10° ENE
Cosmos 405 Rocket 2.7 12:29:55 10° SSW 12:32:57 37° W 12:36:00 10° N
COSMO-SKYMED 1 2.7 12:29:16 10° S 12:33:12 45° W 12:37:09 10° NNW
[s.n.66866] 1.4 12:30:44 10° SW 12:33:15 76° SSE 12:35:49 10° ENE
[s.n.66865] 1.4 12:31:16 10° SW 12:33:48 77° SSE 12:36:21 10° ENE
Cosmos 1626 Rocket 3.7 12:29:49 10° SSW 12:34:06 50° W 12:38:23 10° N
[s.n.66860] 1.4 12:31:56 10° SW 12:34:29 79° SSE 12:37:02 10° ENE
[s.n.66864] 1.3 12:32:34 10° SW 12:35:06 80° SSE 12:37:39 10° ENE
OAO 3 Rocket 3.1 12:30:37 10° W 12:35:15 81° NNW 12:40:00 10° ENE
[s.n.66863] 1.3 12:33:10 10° SW 12:35:42 82° SSE 12:38:16 10° ENE
[s.n.66861] 1.3 12:33:59 10° SW 12:36:32 84° SSE 12:39:06 10° ENE
[s.n.66862] 1.3 12:34:38 10° WSW 12:37:10 85° SSE 12:39:44 10° ENE
Cosmos 2333 Rocket 2.2 12:31:37 10° NNW 12:37:20 68° WSW 12:42:58 10° S
Cosmos-2242 3.3 12:33:46 10° NNW 12:37:43 41° W 12:41:37 10° SSW
[s.n.66859] 1.3 12:35:20 10° WSW 12:37:53 87° SSE 12:40:27 10° ENE
[s.n.66858] 1.3 12:36:00 10° WSW 12:38:33 88° SSE 12:41:07 10° ENE
[s.n.66857] 1.2 12:36:35 10° WSW 12:39:08 90° S 12:41:42 10° ENE
[s.n.66856] 1.2 12:37:09 10° WSW 12:39:42 89° NW 12:42:16 10° ENE
USA 59 Rocket 1.9 12:36:56 12° WNW 12:40:01 22° WSW 12:44:27 10° SSW
[s.n.66855] 1.2 12:37:49 10° WSW 12:40:23 87° NNW 12:42:57 10° ENE
[s.n.66854] 1.2 12:38:25 10° WSW 12:40:58 86° NNW 12:43:32 10° ENE
Okean 1 3.5 12:38:17 10° NNW 12:41:35 37° W 12:44:52 10° SSW
[s.n.66853] 1.2 12:39:08 10° WSW 12:41:41 84° NNW 12:44:16 10° ENE
[s.n.66852] 1.2 12:39:54 10° WSW 12:42:27 83° NW 12:45:02 10° ENE
[s.n.66851] 1.2 12:40:25 10° WSW 12:42:59 81° NNW 12:45:33 10° ENE
[s.n.66850] 1.2 12:40:58 10° WSW 12:43:32 80° NNW 12:46:06 10° ENE
[s.n.66849] 1.2 12:41:41 10° WSW 12:44:15 79° NNW 12:46:49 10° ENE
[s.n.66848] 1.2 12:42:13 10° WSW 12:44:47 77° NNW 12:47:21 10° ENE
SL-4 R/B 4.0 12:45:01 10° N 12:46:27 12° NNE 12:47:53 10° ENE
Cosmos 2219 Rocket 3.0 12:42:11 10° N 12:47:42 53° ENE 12:53:09 10° SE
ARIANE 5 R/B 3.2 12:45:59 10° NNE 12:51:10 62° ESE 12:56:18 10° S
COSMOS 2455 4.5 12:48:01 10° WNW 12:51:12 15° WSW 12:54:22 10° SW
IGS 5A 3.9 12:48:17 10° N 12:51:57 36° WNW 12:55:37 10° SW
Cosmos 2322 Rocket 2.3 12:49:47 10° NNW 12:55:23 63° WSW 13:00:57 10° S
Cosmos 2285 Rocket 4.1 12:49:04 10° NNW 12:55:29 81° WSW 13:01:53 10° S
ATLAS 2AS CENTAUR R/B 3.0 12:50:09 10° SW 12:56:59 49° NW 13:03:41 10° NNE
Cosmos 773 Rocket 4.1 23:43:12 10° NNW 23:48:26 85° WSW 23:53:41 10° SSE
IRIDIUM 103 4.4 23:43:29 10° N 23:48:40 64° E 23:53:49 10° SSE
MOS 1 Rocket 4.2 23:45:09 10° SE 23:49:20 30° ENE 23:53:44 10° N
Cosmos 990 Rocket 4.0 23:44:59 10° SSW 23:50:06 89° WNW 23:55:15 10° NNE
EXPRESS MD2 3.0 23:49:28 10° WSW 23:51:35 41° NW 23:54:21 10° NE
Cosmos 2227 Rocket 3.0 23:46:54 10° N 23:51:43 28° ENE 23:56:31 10° ESE
Cosmos 2084 Rocket 4.2 23:48:16 10° N 23:51:56 29° NE 23:55:36 10° ESE
